| time (UTC) | temp C | wind direction | speed KPH | gust KPH | rain 1hr cm | rain 24hr cm | rain mn cm | humidity % | barometer mb |
| 20260502164046 | 8 | 317 | 3.2 | 6.4 | 0.00 | 0.00 | 0.00 | 96 | 1014.1 |
| 20260502163544 | 8 | 317 | 3.2 | 6.4 | 0.00 | 0.00 | 0.00 | 96 | 1014.0 |
| 20260502163051 | 8 | 317 | 0.0 | 4.8 | 0.00 | 0.00 | 0.00 | 96 | 1014.0 |
| 20260502162546 | 8 | 317 | 0.0 | 4.8 | 0.00 | 0.00 | 0.00 | 96 | 1014.0 |
| 20260502162042 | 8 | 317 | 1.6 | 4.8 | 0.00 | 0.00 | 0.00 | 96 | 1014.0 |
| 20260502161608 | 8 | 317 | 1.6 | 4.8 | 0.00 | 0.00 | 0.00 | 96 | 1014.0 |
| 20260502161041 | 8 | 317 | 1.6 | 4.8 | 0.00 | 0.00 | 0.00 | 96 | 1014.0 |
| 20260502160542 | 8 | 315 | 1.6 | 4.8 | 0.00 | 0.00 | 0.00 | 96 | 1014.0 |
| 20260502160105 | 8 | 316 | 1.6 | 4.8 | 0.00 | 0.00 | 0.00 | 96 | 1014.0 |
| 20260502152043 | 7 | 315 | 1.6 | 4.8 | 0.00 | 0.00 | 0.00 | 96 | 1013.5 |
| 20260502151551 | 7 | 0 | 0.0 | 0.0 | 0.00 | 0.00 | 0.00 | 96 | 1013.4 |
| 20260502151042 | 7 | 0 | 0.0 | 0.0 | 0.00 | 0.00 | 0.00 | 96 | 1013.4 |
| 20260502150542 | 8 | 0 | 0.0 | 0.0 | 0.00 | 0.00 | 0.00 | 96 | 1013.4 |
| 20260502130543 | 7 | 315 | 1.6 | 6.4 | 0.00 | 0.00 | 0.00 | 96 | 1012.8 |
| 20260502130107 | 7 | 316 | 3.2 | 6.4 | 0.00 | 0.00 | 0.00 | 96 | 1012.8 |
| 20260502123544 | 7 | 315 | 3.2 | 8.0 | 0.00 | 0.00 | 0.00 | 96 | 1012.5 |
| 20260502123121 | 7 | 314 | 4.8 | 8.0 | 0.00 | 0.00 | 0.00 | 96 | 1012.6 |
| 20260502122544 | 7 | 314 | 3.2 | 8.0 | 0.00 | 0.00 | 0.00 | 96 | 1012.5 |
| 20260502122045 | 7 | 314 | 3.2 | 8.0 | 0.00 | 0.00 | 0.00 | 96 | 1012.4 |
| 20260502121549 | 7 | 314 | 3.2 | 8.0 | 0.00 | 0.00 | 0.00 | 96 | 1012.4 |
| 20260502121046 | 7 | 314 | 3.2 | 8.0 | 0.00 | 0.00 | 0.00 | 96 | 1012.5 |
| 20260502120546 | 7 | 315 | 3.2 | 8.0 | 0.00 | 0.00 | 0.00 | 96 | 1012.5 |
| 20260502120124 | 7 | 314 | 3.2 | 8.0 | 0.00 | 0.00 | 0.00 | 96 | 1012.4 |
| 20260502115544 | 7 | 314 | 0.0 | 8.0 | 0.00 | 0.00 | 0.00 | 96 | 1012.5 |
| 20260502115046 | 7 | 314 | 1.6 | 8.0 | 0.00 | 0.00 | 0.00 | 96 | 1012.5 |
| 20260502114557 | 7 | 314 | 4.8 | 8.0 | 0.00 | 0.00 | 0.00 | 96 | 1012.5 |
| 20260502114045 | 7 | 306 | 4.8 | 6.4 | 0.00 | 0.00 | 0.00 | 96 | 1012.4 |
| 20260502113546 | 7 | 306 | 3.2 | 6.4 | 0.00 | 0.00 | 0.00 | 96 | 1012.3 |
| 20260502113055 | 7 | 306 | 3.2 | 4.8 | 0.00 | 0.00 | 0.00 | 96 | 1012.3 |
| 20260502112544 | 7 | 306 | 1.6 | 6.4 | 0.00 | 0.00 | 0.00 | 96 | 1012.3 |
| 20260502112044 | 7 | 306 | 3.2 | 6.4 | 0.00 | 0.00 | 0.00 | 96 | 1012.2 |
| 20260502111553 | 7 | 306 | 3.2 | 6.4 | 0.00 | 0.00 | 0.00 | 96 | 1012.2 |
| 20260502111046 | 7 | 309 | 3.2 | 6.4 | 0.00 | 0.00 | 0.00 | 96 | 1012.2 |
| 20260502110545 | 7 | 309 | 1.6 | 4.8 | 0.00 | 0.00 | 0.00 | 96 | 1012.2 |
| 20260502110055 | 7 | 309 | 1.6 | 4.8 | 0.00 | 0.00 | 0.00 | 96 | 1012.2 |
| 20260502105546 | 7 | 309 | 1.6 | 3.2 | 0.00 | 0.00 | 0.00 | 96 | 1012.3 |
| 20260502105044 | 7 | 0 | 0.0 | 1.6 | 0.00 | 0.00 | 0.00 | 96 | 1012.2 |
| 20260502104554 | 7 | 309 | 0.0 | 3.2 | 0.00 | 0.00 | 0.00 | 96 | 1012.3 |
| 20260502104046 | 7 | 0 | 0.0 | 4.8 | 0.00 | 0.00 | 0.00 | 96 | 1012.2 |
| 20260502103545 | 7 | 309 | 1.6 | 4.8 | 0.00 | 0.00 | 0.00 | 96 | 1012.4 |
| 20260502103052 | 7 | 309 | 3.2 | 6.4 | 0.00 | 0.00 | 0.00 | 95 | 1012.5 |
| 20260502102549 | 7 | 309 | 3.2 | 6.4 | 0.00 | 0.00 | 0.00 | 95 | 1012.6 |
| 20260502102045 | 7 | 320 | 3.2 | 6.4 | 0.00 | 0.00 | 0.00 | 95 | 1012.6 |
| 20260502101559 | 7 | 321 | 1.6 | 4.8 | 0.00 | 0.00 | 0.00 | 96 | 1012.5 |
| 20260502101048 | 7 | 321 | 1.6 | 4.8 | 0.00 | 0.00 | 0.00 | 96 | 1012.6 |
| 20260502100545 | 7 | 0 | 0.0 | 8.0 | 0.00 | 0.00 | 0.00 | 96 | 1012.7 |
| 20260502100212 | 7 | 321 | 3.2 | 8.0 | 0.00 | 0.00 | 0.00 | 96 | 1012.7 |
| 20260502091043 | 8 | 317 | 3.2 | 6.4 | 0.00 | 0.00 | 0.00 | 95 | 1013.2 |
| 20260502090544 | 8 | 0 | 0.0 | 1.6 | 0.00 | 0.00 | 0.00 | 96 | 1013.2 |
| 20260502071044 | 8 | 0 | 0.0 | 8.0 | 0.00 | 0.00 | 0.00 | 95 | 1013.7 |
| 20260502070545 | 8 | 317 | 3.2 | 8.0 | 0.00 | 0.00 | 0.00 | 95 | 1013.7 |
| 20260502070049 | 8 | 317 | 4.8 | 8.0 | 0.00 | 0.00 | 0.00 | 95 | 1013.7 |
| 20260502065545 | 8 | 303 | 4.8 | 8.0 | 0.00 | 0.00 | 0.00 | 95 | 1013.8 |
| 20260502065046 | 8 | 311 | 4.8 | 8.0 | 0.00 | 0.00 | 0.00 | 95 | 1013.7 |
| 20260502064547 | 8 | 309 | 3.2 | 8.0 | 0.00 | 0.00 | 0.00 | 95 | 1013.7 |
| 20260502064044 | 8 | 315 | 3.2 | 6.4 | 0.00 | 0.00 | 0.00 | 95 | 1013.8 |
| 20260502063545 | 8 | 315 | 3.2 | 6.4 | 0.00 | 0.00 | 0.00 | 95 | 1013.8 |
| 20260502063058 | 8 | 315 | 3.2 | 6.4 | 0.00 | 0.00 | 0.00 | 95 | 1013.8 |
| 20260502062545 | 8 | 304 | 3.2 | 6.4 | 0.00 | 0.00 | 0.00 | 95 | 1013.9 |
| 20260502062048 | 8 | 312 | 3.2 | 6.4 | 0.00 | 0.00 | 0.00 | 95 | 1014.0 |
| 20260502061550 | 8 | 312 | 3.2 | 6.4 | 0.00 | 0.00 | 0.00 | 95 | 1013.9 |
| 20260502061047 | 8 | 312 | 3.2 | 4.8 | 0.00 | 0.00 | 0.00 | 95 | 1013.9 |
| 20260502060545 | 8 | 312 | 1.6 | 4.8 | 0.00 | 0.00 | 0.00 | 95 | 1014.0 |
| 20260502060053 | 8 | 312 | 0.0 | 3.2 | 0.00 | 0.00 | 0.00 | 95 | 1014.0 |
| 20260502055545 | 8 | 312 | 1.6 | 3.2 | 0.00 | 0.00 | 0.00 | 94 | 1014.0 |
| 20260502055045 | 8 | 312 | 1.6 | 6.4 | 0.00 | 0.00 | 0.00 | 94 | 1014.2 |
| 20260502054551 | 8 | 312 | 3.2 | 6.4 | 0.00 | 0.00 | 0.00 | 95 | 1014.1 |
| 20260502054045 | 8 | 311 | 3.2 | 6.4 | 0.00 | 0.00 | 0.00 | 94 | 1014.2 |
| 20260502053545 | 8 | 312 | 3.2 | 8.0 | 0.00 | 0.00 | 0.00 | 94 | 1014.2 |
| 20260502053050 | 9 | 312 | 3.2 | 8.0 | 0.00 | 0.00 | 0.00 | 94 | 1014.1 |
| 20260502052544 | 9 | 309 | 4.8 | 8.0 | 0.00 | 0.00 | 0.00 | 94 | 1014.2 |
| 20260502052046 | 9 | 316 | 4.8 | 8.0 | 0.00 | 0.00 | 0.00 | 94 | 1014.2 |
| 20260502051552 | 9 | 308 | 3.2 | 6.4 | 0.00 | 0.00 | 0.00 | 94 | 1014.1 |
| 20260502051109 | 9 | 299 | 3.2 | 6.4 | 0.00 | 0.00 | 0.00 | 94 | 1014.2 |
| 20260502050543 | 9 | 322 | 3.2 | 8.0 | 0.00 | 0.00 | 0.00 | 94 | 1014.3 |
| 20260502050056 | 9 | 306 | 3.2 | 8.0 | 0.00 | 0.00 | 0.00 | 94 | 1014.3 |
| 20260502045542 | 9 | 312 | 4.8 | 8.0 | 0.00 | 0.00 | 0.00 | 93 | 1014.3 |
| 20260502045043 | 9 | 303 | 4.8 | 8.0 | 0.00 | 0.00 | 0.00 | 93 | 1014.2 |
| 20260502044551 | 9 | 298 | 4.8 | 8.0 | 0.00 | 0.00 | 0.00 | 93 | 1014.1 |
| 20260502044044 | 9 | 300 | 3.2 | 6.4 | 0.00 | 0.00 | 0.00 | 92 | 1014.1 |
| 20260502043543 | 10 | 302 | 3.2 | 6.4 | 0.00 | 0.00 | 0.00 | 92 | 1014.1 |
| 20260502043057 | 10 | 302 | 3.2 | 6.4 | 0.00 | 0.00 | 0.00 | 91 | 1014.1 |
| 20260502042543 | 10 | 301 | 3.2 | 6.4 | 0.00 | 0.00 | 0.00 | 89 | 1014.0 |
| 20260502042045 | 11 | 302 | 3.2 | 4.8 | 0.00 | 0.00 | 0.00 | 87 | 1013.9 |
| 20260502041557 | 12 | 28 | 0.0 | 3.2 | 0.00 | 0.00 | 0.00 | 87 | 1013.8 |
| 20260502041043 | 12 | 0 | 0.0 | 0.0 | 0.00 | 0.00 | 0.00 | 92 | 1013.8 |
| 20260502040543 | 12 | 0 | 0.0 | 3.2 | 0.00 | 0.00 | 0.00 | 93 | 1013.7 |
| 20260502040101 | 12 | 0 | 0.0 | 3.2 | 0.00 | 0.00 | 0.00 | 94 | 1013.7 |
| 20260502035543 | 12 | 324 | 0.0 | 3.2 | 0.00 | 0.00 | 0.00 | 94 | 1013.7 |
| 20260502035044 | 12 | 0 | 0.0 | 1.6 | 0.00 | 0.00 | 0.00 | 94 | 1013.5 |
| 20260502034558 | 12 | 0 | 0.0 | 3.2 | 0.00 | 0.00 | 0.00 | 94 | 1013.5 |
| 20260502034043 | 11 | 0 | 0.0 | 3.2 | 0.00 | 0.00 | 0.00 | 94 | 1013.4 |
| 20260502033544 | 11 | 324 | 0.0 | 3.2 | 0.00 | 0.00 | 0.00 | 94 | 1013.3 |
| 20260502033056 | 11 | 0 | 0.0 | 6.4 | 0.00 | 0.00 | 0.00 | 93 | 1013.3 |
| 20260502032543 | 10 | 0 | 0.0 | 6.4 | 0.00 | 0.00 | 0.00 | 92 | 1013.3 |
| 20260502032045 | 10 | 319 | 1.6 | 4.8 | 0.00 | 0.00 | 0.00 | 92 | 1013.4 |
| 20260502031556 | 10 | 319 | 0.0 | 6.4 | 0.00 | 0.00 | 0.00 | 92 | 1013.3 |
| 20260502031044 | 10 | 0 | 1.6 | 6.4 | 0.00 | 0.00 | 0.00 | 91 | 1013.3 |
| 20260502030544 | 10 | 314 | 1.6 | 4.8 | 0.00 | 0.00 | 0.00 | 91 | 1013.3 |
| 20260502030048 | 11 | 314 | 1.6 | 4.8 | 0.00 | 0.00 | 0.00 | 90 | 1013.3 |
| 20260502025545 | 11 | 314 | 1.6 | 4.8 | 0.00 | 0.00 | 0.00 | 90 | 1013.3 |
| 20260502025042 | 11 | 314 | 3.2 | 8.0 | 0.00 | 0.00 | 0.00 | 90 | 1013.2 |
| 20260502024609 | 11 | 311 | 1.6 | 8.0 | 0.00 | 0.00 | 0.00 | 89 | 1013.3 |
| 20260502024043 | 11 | 311 | 4.8 | 8.0 | 0.00 | 0.00 | 0.00 | 88 | 1013.2 |
| 20260502023544 | 11 | 302 | 4.8 | 8.0 | 0.00 | 0.00 | 0.00 | 87 | 1013.2 |
| 20260502023058 | 12 | 307 | 4.8 | 8.0 | 0.00 | 0.00 | 0.00 | 86 | 1013.3 |
| 20260502022543 | 12 | 311 | 4.8 | 8.0 | 0.00 | 0.00 | 0.00 | 85 | 1013.2 |
| 20260502022043 | 12 | 306 | 4.8 | 8.0 | 0.00 | 0.00 | 0.00 | 85 | 1013.2 |
| 20260502021558 | 12 | 302 | 3.2 | 8.0 | 0.00 | 0.00 | 0.00 | 85 | 1013.1 |
| 20260502021043 | 13 | 309 | 3.2 | 11.3 | 0.00 | 0.00 | 0.00 | 84 | 1013.1 |
| 20260502020543 | 13 | 310 | 3.2 | 12.9 | 0.00 | 0.00 | 0.00 | 83 | 1013.2 |
| 20260502020054 | 13 | 311 | 6.4 | 12.9 | 0.00 | 0.00 | 0.00 | 82 | 1013.2 |
| 20260502015543 | 13 | 302 | 8.0 | 12.9 | 0.00 | 0.00 | 0.00 | 81 | 1013.3 |
| 20260502015043 | 14 | 310 | 6.4 | 12.9 | 0.00 | 0.00 | 0.00 | 81 | 1013.2 |
| 20260502014549 | 14 | 302 | 4.8 | 8.0 | 0.00 | 0.00 | 0.00 | 81 | 1013.2 |
| 20260502014043 | 14 | 314 | 4.8 | 8.0 | 0.00 | 0.00 | 0.00 | 80 | 1013.2 |
| 20260502013543 | 15 | 311 | 4.8 | 9.7 | 0.00 | 0.00 | 0.00 | 80 | 1013.2 |
| 20260502013052 | 15 | 313 | 4.8 | 11.3 | 0.00 | 0.00 | 0.00 | 80 | 1013.2 |
| 20260502012543 | 15 | 317 | 6.4 | 11.3 | 0.00 | 0.00 | 0.00 | 79 | 1013.3 |
| 20260502012043 | 15 | 314 | 4.8 | 11.3 | 0.00 | 0.00 | 0.00 | 79 | 1013.3 |
| 20260502011550 | 15 | 303 | 6.4 | 11.3 | 0.00 | 0.00 | 0.00 | 78 | 1013.2 |
| 20260502011043 | 15 | 304 | 6.4 | 11.3 | 0.00 | 0.00 | 0.00 | 77 | 1013.3 |
| 20260502010543 | 16 | 298 | 6.4 | 11.3 | 0.00 | 0.00 | 0.00 | 77 | 1013.3 |
| 20260502005543 | 16 | 304 | 6.4 | 11.3 | 0.00 | 0.00 | 0.00 | 76 | 1013.4 |
| 20260502005044 | 16 | 313 | 4.8 | 12.9 | 0.00 | 0.00 | 0.00 | 76 | 1013.3 |
| 20260502004603 | 16 | 300 | 6.4 | 12.9 | 0.00 | 0.00 | 0.00 | 75 | 1013.2 |
| 20260502004043 | 16 | 294 | 6.4 | 12.9 | 0.00 | 0.00 | 0.00 | 75 | 1013.3 |
| 20260502003547 | 16 | 309 | 8.0 | 12.9 | 0.00 | 0.00 | 0.00 | 75 | 1013.4 |
| 20260502003045 | 16 | 298 | 6.4 | 12.9 | 0.00 | 0.00 | 0.00 | 75 | 1013.4 |
| 20260502002543 | 17 | 310 | 8.0 | 14.5 | 0.00 | 0.00 | 0.00 | 74 | 1013.4 |
| 20260502002043 | 17 | 302 | 6.4 | 14.5 | 0.00 | 0.00 | 0.00 | 74 | 1013.4 |
| 20260502001546 | 17 | 299 | 6.4 | 14.5 | 0.00 | 0.00 | 0.00 | 73 | 1013.4 |
| 20260502001043 | 17 | 295 | 6.4 | 12.9 | 0.00 | 0.00 | 0.00 | 73 | 1013.4 |
| 20260502000543 | 17 | 313 | 6.4 | 12.9 | 0.00 | 0.00 | 0.00 | 72 | 1013.5 |
| 20260502000046 | 18 | 286 | 6.4 | 11.3 | 0.00 | 0.00 | 0.00 | 72 | 1013.5 |
| 20260501235546 | 18 | 300 | 4.8 | 11.3 | 0.00 | 0.00 | 0.00 | 71 | 1013.5 |
| 20260501235043 | 18 | 315 | 4.8 | 11.3 | 0.00 | 0.00 | 0.00 | 72 | 1013.5 |
| 20260501234545 | 18 | 309 | 4.8 | 11.3 | 0.00 | 0.00 | 0.00 | 72 | 1013.5 |
| 20260501234043 | 18 | 301 | 6.4 | 12.9 | 0.00 | 0.00 | 0.00 | 71 | 1013.6 |
| 20260501233543 | 18 | 296 | 6.4 | 12.9 | 0.00 | 0.00 | 0.00 | 71 | 1013.7 |
| 20260501233049 | 18 | 290 | 8.0 | 14.5 | 0.00 | 0.00 | 0.00 | 70 | 1013.8 |
| 20260501232544 | 18 | 319 | 6.4 | 14.5 | 0.00 | 0.00 | 0.00 | 70 | 1013.8 |
| 20260501232045 | 19 | 300 | 4.8 | 12.9 | 0.00 | 0.00 | 0.00 | 69 | 1013.8 |
| 20260501231548 | 19 | 304 | 6.4 | 12.9 | 0.00 | 0.00 | 0.00 | 69 | 1013.9 |
| 20260501231043 | 19 | 295 | 6.4 | 12.9 | 0.00 | 0.00 | 0.00 | 69 | 1013.8 |
| 20260501230547 | 19 | 316 | 8.0 | 12.9 | 0.00 | 0.00 | 0.00 | 69 | 1013.9 |
| 20260501230047 | 19 | 303 | 6.4 | 12.9 | 0.00 | 0.00 | 0.00 | 69 | 1014.0 |
| 20260501225544 | 19 | 300 | 6.4 | 12.9 | 0.00 | 0.00 | 0.00 | 70 | 1014.1 |
| 20260501225043 | 19 | 300 | 6.4 | 14.5 | 0.00 | 0.00 | 0.00 | 70 | 1014.3 |
| 20260501224551 | 20 | 296 | 6.4 | 14.5 | 0.00 | 0.00 | 0.00 | 69 | 1014.4 |
| 20260501224043 | 20 | 297 | 4.8 | 11.3 | 0.00 | 0.00 | 0.00 | 69 | 1014.4 |
| 20260501223543 | 19 | 308 | 4.8 | 11.3 | 0.00 | 0.00 | 0.00 | 70 | 1014.5 |
| 20260501223044 | 19 | 302 | 4.8 | 11.3 | 0.00 | 0.00 | 0.00 | 69 | 1014.6 |
| 20260501222543 | 19 | 305 | 4.8 | 11.3 | 0.00 | 0.00 | 0.00 | 70 | 1014.7 |
| 20260501222040 | 19 | 294 | 3.2 | 11.3 | 0.00 | 0.00 | 0.00 | 69 | 1014.7 |
| 20260501221551 | 19 | 313 | 6.4 | 11.3 | 0.00 | 0.00 | 0.00 | 69 | 1014.8 |
| 20260501221040 | 19 | 310 | 4.8 | 8.0 | 0.00 | 0.00 | 0.00 | 70 | 1014.9 |
| 20260501220544 | 19 | 306 | 3.2 | 9.7 | 0.00 | 0.00 | 0.00 | 70 | 1014.9 |
| 20260501220059 | 19 | 311 | 4.8 | 11.3 | 0.00 | 0.00 | 0.00 | 70 | 1015.0 |
| 20260501215544 | 19 | 317 | 4.8 | 11.3 | 0.00 | 0.00 | 0.00 | 70 | 1014.9 |
| 20260501215040 | 19 | 300 | 4.8 | 11.3 | 0.00 | 0.00 | 0.00 | 71 | 1014.9 |
| 20260501214552 | 19 | 315 | 4.8 | 11.3 | 0.00 | 0.00 | 0.00 | 72 | 1014.9 |
| 20260501214043 | 19 | 302 | 4.8 | 11.3 | 0.00 | 0.00 | 0.00 | 71 | 1015.0 |
| 20260501213543 | 18 | 334 | 3.2 | 11.3 | 0.00 | 0.00 | 0.00 | 70 | 1015.1 |
| 20260501213054 | 18 | 317 | 3.2 | 8.0 | 0.00 | 0.00 | 0.00 | 72 | 1015.0 |
| 20260501212543 | 18 | 311 | 4.8 | 8.0 | 0.00 | 0.00 | 0.00 | 72 | 1015.1 |
| 20260501212044 | 18 | 326 | 4.8 | 9.7 | 0.00 | 0.00 | 0.00 | 71 | 1015.1 |
| 20260501211556 | 18 | 313 | 3.2 | 11.3 | 0.00 | 0.00 | 0.00 | 71 | 1015.1 |
| 20260501211043 | 18 | 306 | 4.8 | 11.3 | 0.00 | 0.00 | 0.00 | 72 | 1015.1 |
| 20260501210545 | 18 | 305 | 4.8 | 11.3 | 0.00 | 0.00 | 0.00 | 71 | 1015.1 |
| 20260501210058 | 18 | 313 | 4.8 | 11.3 | 0.00 | 0.00 | 0.00 | 71 | 1015.1 |
| 20260501205545 | 18 | 302 | 4.8 | 8.0 | 0.00 | 0.00 | 0.00 | 72 | 1015.0 |
| 20260501205039 | 18 | 321 | 3.2 | 8.0 | 0.00 | 0.00 | 0.00 | 72 | 1015.1 |
| 20260501204556 | 18 | 311 | 3.2 | 8.0 | 0.00 | 0.00 | 0.00 | 71 | 1015.0 |
| 20260501204044 | 18 | 311 | 3.2 | 8.0 | 0.00 | 0.00 | 0.00 | 72 | 1015.1 |
| 20260501203544 | 18 | 318 | 3.2 | 8.0 | 0.00 | 0.00 | 0.00 | 72 | 1015.2 |
| 20260501203054 | 18 | 311 | 3.2 | 9.7 | 0.00 | 0.00 | 0.00 | 72 | 1015.2 |
| 20260501202544 | 18 | 332 | 4.8 | 11.3 | 0.00 | 0.00 | 0.00 | 72 | 1015.3 |
| 20260501202044 | 18 | 310 | 4.8 | 11.3 | 0.00 | 0.00 | 0.00 | 73 | 1015.3 |
| 20260501201550 | 18 | 312 | 4.8 | 11.3 | 0.00 | 0.00 | 0.00 | 72 | 1015.3 |
| 20260501201044 | 18 | 304 | 3.2 | 8.0 | 0.00 | 0.00 | 0.00 | 72 | 1015.3 |
| 20260501200547 | 18 | 308 | 4.8 | 8.0 | 0.00 | 0.00 | 0.00 | 73 | 1015.3 |
| 20260501200044 | 17 | 300 | 3.2 | 8.0 | 0.00 | 0.00 | 0.00 | 73 | 1015.3 |
| 20260501195546 | 17 | 319 | 3.2 | 6.4 | 0.00 | 0.00 | 0.00 | 73 | 1015.3 |
| 20260501195043 | 17 | 331 | 3.2 | 4.8 | 0.00 | 0.00 | 0.00 | 75 | 1015.4 |
| 20260501194558 | 17 | 331 | 3.2 | 6.4 | 0.00 | 0.00 | 0.00 | 74 | 1015.4 |
| 20260501194043 | 17 | 319 | 3.2 | 6.4 | 0.00 | 0.00 | 0.00 | 75 | 1015.5 |
| 20260501193542 | 16 | 326 | 3.2 | 6.4 | 0.00 | 0.00 | 0.00 | 76 | 1015.6 |
| 20260501193105 | 16 | 333 | 3.2 | 8.0 | 0.00 | 0.00 | 0.00 | 76 | 1015.7 |
| 20260501192544 | 16 | 311 | 3.2 | 8.0 | 0.00 | 0.00 | 0.00 | 77 | 1015.7 |
| 20260501192044 | 16 | 323 | 3.2 | 8.0 | 0.00 | 0.00 | 0.00 | 77 | 1015.8 |
| 20260501191552 | 16 | 325 | 3.2 | 8.0 | 0.00 | 0.00 | 0.00 | 77 | 1015.9 |
| 20260501191044 | 16 | 337 | 3.2 | 6.4 | 0.00 | 0.00 | 0.00 | 77 | 1015.8 |
| 20260501190546 | 16 | 334 | 3.2 | 8.0 | 0.00 | 0.00 | 0.00 | 78 | 1015.9 |
| 20260501190127 | 15 | 316 | 3.2 | 8.0 | 0.00 | 0.00 | 0.00 | 79 | 1015.9 |
| 20260501185543 | 15 | 317 | 4.8 | 8.0 | 0.00 | 0.00 | 0.00 | 78 | 1015.8 |
| 20260501185043 | 15 | 321 | 3.2 | 6.4 | 0.00 | 0.00 | 0.00 | 79 | 1015.7 |
| 20260501184609 | 15 | 317 | 3.2 | 4.8 | 0.00 | 0.00 | 0.00 | 80 | 1015.7 |
| 20260501184044 | 14 | 318 | 1.6 | 4.8 | 0.00 | 0.00 | 0.00 | 81 | 1015.8 |
| 20260501183545 | 14 | 318 | 1.6 | 6.4 | 0.00 | 0.00 | 0.00 | 81 | 1015.8 |
| 20260501183053 | 13 | 311 | 3.2 | 6.4 | 0.00 | 0.00 | 0.00 | 82 | 1015.8 |
| 20260501182545 | 13 | 314 | 3.2 | 6.4 | 0.00 | 0.00 | 0.00 | 82 | 1015.9 |
| 20260501182043 | 13 | 304 | 3.2 | 6.4 | 0.00 | 0.00 | 0.00 | 82 | 1015.9 |
| 20260501181553 | 13 | 314 | 4.8 | 6.4 | 0.00 | 0.00 | 0.00 | 83 | 1015.9 |
| 20260501181044 | 13 | 302 | 3.2 | 8.0 | 0.00 | 0.00 | 0.00 | 83 | 1015.9 |
| 20260501180547 | 12 | 301 | 3.2 | 8.0 | 0.00 | 0.00 | 0.00 | 84 | 1015.9 |
| 20260501180109 | 12 | 310 | 3.2 | 8.0 | 0.00 | 0.00 | 0.00 | 84 | 1016.0 |
| 20260501175544 | 12 | 306 | 3.2 | 8.0 | 0.00 | 0.00 | 0.00 | 85 | 1016.0 |
| 20260501175043 | 12 | 302 | 3.2 | 8.0 | 0.00 | 0.00 | 0.00 | 85 | 1016.1 |
| 20260501174553 | 12 | 325 | 3.2 | 9.7 | 0.00 | 0.00 | 0.00 | 86 | 1016.0 |
| 20260501174043 | 12 | 316 | 4.8 | 11.3 | 0.00 | 0.00 | 0.00 | 85 | 1016.0 |
| 20260501173543 | 11 | 307 | 4.8 | 11.3 | 0.00 | 0.00 | 0.00 | 86 | 1016.0 |